Location: Équennes
(49.7375°N, 1.9622°E)
Time: 01:20:46
(UTC+00:00)

Cosmos 2278 Rocket - Pass Details

Date: 28 January 2023
Orbit: 841 x 845 km, 71.0° (Epoch: 31 March)

Event Time Altitude Azimuth Distance (km) Brightness Sun altitude
Rises 19:37:52 0° 334° (NNW) 3,417 5.8 -28.6°
Reaches altitude 10° 19:40:51 10° 348° (NNW) 2,478 4.8 -29.1°
Enters shadow 19:42:46 17° 5° (N) 2,004 4.1 -29.4°
